Time,TemperatureF,DewpointF,PressureIn,WindDirection,WindDirectionDegrees,WindSpeedMPH,WindSpeedGustMPH,Humidity,HourlyPrecipIn,Conditions,Clouds,dailyrainin,SoftwareType,DateUTC
2013-10-26 13:32:00,68.7,54.7,29.98,SW,225,0.0,0.0,61,0.00,,,0.00,WUHU216HW,2013-10-26 20:32:00,
2013-10-26 13:33:00,68.7,54.7,29.98,SW,225,0.0,0.0,61,0.00,,,0.00,WUHU216HW,2013-10-26 20:33:00,
2013-10-26 13:39:00,68.9,54.5,29.98,SW,225,0.0,0.0,60,0.00,,,0.00,WUHU216HW,2013-10-26 20:39:00,
2013-10-26 13:44:00,69.2,54.8,29.98,SSW,203,2.2,2.2,60,0.00,,,0.00,WUHU216HW,2013-10-26 20:44:00,
2013-10-26 13:49:00,69.2,53.8,29.98,SW,225,0.0,2.4,58,0.00,,,0.00,WUHU216HW,2013-10-26 20:49:00,
2013-10-26 13:54:00,69.0,53.6,29.98,South,180,0.0,2.4,58,0.00,,,0.00,WUHU216HW,2013-10-26 20:54:00,
2013-10-26 13:59:00,69.2,53.8,29.97,SW,225,0.0,0.0,58,0.00,,,0.00,WUHU216HW,2013-10-26 20:59:00,
2013-10-26 14:04:00,69.0,53.6,29.97,SSW,203,0.0,0.0,58,0.00,,,0.00,WUHU216HW,2013-10-26 21:04:00,
2013-10-26 14:09:00,68.9,53.9,29.97,SSW,203,0.0,0.0,59,0.00,,,0.00,WUHU216HW,2013-10-26 21:09:00,
2013-10-26 14:14:00,68.9,54.5,29.96,South,180,0.0,0.0,60,0.00,,,0.00,WUHU216HW,2013-10-26 21:14:00,
2013-10-26 14:19:00,69.4,54.5,29.96,SSW,203,0.0,0.0,59,0.00,,,0.00,WUHU216HW,2013-10-26 21:19:00,
2013-10-26 14:24:00,69.6,54.7,29.96,SSW,203,0.0,0.0,59,0.00,,,0.00,WUHU216HW,2013-10-26 21:24:00,
2013-10-26 14:29:00,69.9,54.5,29.96,SSW,203,0.0,0.0,58,0.00,,,0.00,WUHU216HW,2013-10-26 21:29:00,
2013-10-26 14:34:00,70.1,54.7,29.96,SW,225,0.0,0.0,58,0.00,,,0.00,WUHU216HW,2013-10-26 21:34:00,
2013-10-26 14:40:00,70.3,54.8,29.96,SW,225,0.0,0.0,58,0.00,,,0.00,WUHU216HW,2013-10-26 21:40:00,
2013-10-26 14:45:00,70.5,54.8,29.96,SW,225,0.0,0.0,57,0.00,,,0.00,WUHU216HW,2013-10-26 21:45:00,
2013-10-26 14:50:00,70.7,54.6,29.96,SSW,203,0.0,0.0,57,0.00,,,0.00,WUHU216HW,2013-10-26 21:50:00,
2013-10-26 14:55:00,70.8,54.8,29.96,SSW,203,0.0,2.0,57,0.00,,,0.00,WUHU216HW,2013-10-26 21:55:00,
2013-10-26 15:00:00,70.8,54.8,29.96,SSE,158,0.0,2.0,57,0.00,,,0.00,WUHU216HW,2013-10-26 22:00:00,
2013-10-26 15:05:00,70.8,54.3,29.96,SSW,203,1.5,1.5,56,0.00,,,0.00,WUHU216HW,2013-10-26 22:05:00,
2013-10-26 15:10:00,70.5,54.5,29.96,SW,225,2.9,2.9,57,0.00,,,0.00,WUHU216HW,2013-10-26 22:10:00,
2013-10-26 15:15:00,70.1,54.2,29.96,SSW,203,0.0,5.3,57,0.00,,,0.00,WUHU216HW,2013-10-26 22:15:00,
2013-10-26 15:20:00,69.9,54.0,29.95,South,180,0.0,5.3,57,0.00,,,0.00,WUHU216HW,2013-10-26 22:20:00,
2013-10-26 15:25:00,69.8,53.8,29.95,SSW,203,0.0,2.6,57,0.00,,,0.00,WUHU216HW,2013-10-26 22:25:00,
2013-10-26 15:30:00,69.6,53.7,29.95,SSW,203,0.0,0.0,57,0.00,,,0.00,WUHU216HW,2013-10-26 22:30:00,
2013-10-26 15:35:00,69.9,54.0,29.95,SW,225,0.0,0.0,57,0.00,,,0.00,WUHU216HW,2013-10-26 22:35:00,
2013-10-26 15:41:00,69.9,54.0,29.95,SSE,158,0.0,0.0,57,0.00,,,0.00,WUHU216HW,2013-10-26 22:41:00,
2013-10-26 15:46:00,70.3,54.8,29.94,South,180,0.0,0.2,58,0.00,,,0.00,WUHU216HW,2013-10-26 22:46:00,
2013-10-26 15:51:00,70.5,55.0,29.95,SW,225,0.0,0.8,58,0.00,,,0.00,WUHU216HW,2013-10-26 22:51:00,
2013-10-26 15:56:00,70.7,55.2,29.94,SSW,203,0.0,0.8,58,0.00,,,0.00,WUHU216HW,2013-10-26 22:56:00,
2013-10-26 16:01:00,70.8,54.8,29.95,SW,225,0.0,0.0,57,0.00,,,0.00,WUHU216HW,2013-10-26 23:01:00,
2013-10-26 16:06:00,70.8,54.8,29.94,SW,225,0.0,0.0,57,0.00,,,0.00,WUHU216HW,2013-10-26 23:06:00,
2013-10-26 16:11:00,70.7,54.6,29.94,SW,225,0.0,0.0,57,0.00,,,0.00,WUHU216HW,2013-10-26 23:11:00,
2013-10-26 16:16:00,70.8,54.8,29.94,SW,225,0.0,0.6,57,0.00,,,0.00,WUHU216HW,2013-10-26 23:16:00,
2013-10-26 16:21:00,70.8,54.8,29.94,SSW,203,1.1,1.1,57,0.00,,,0.00,WUHU216HW,2013-10-26 23:21:00,
2013-10-26 16:26:00,70.5,54.5,29.93,SSW,203,0.0,1.3,57,0.00,,,0.00,WUHU216HW,2013-10-26 23:26:00,
2013-10-26 16:31:00,70.3,54.3,29.94,SSE,158,0.0,1.5,57,0.00,,,0.00,WUHU216HW,2013-10-26 23:31:00,
2013-10-26 16:36:00,70.1,54.7,29.93,WSW,248,0.0,1.5,58,0.00,,,0.00,WUHU216HW,2013-10-26 23:36:00,
2013-10-26 16:42:00,70.3,54.8,29.93,South,180,0.0,0.0,58,0.00,,,0.00,WUHU216HW,2013-10-26 23:42:00,
2013-10-26 16:47:00,69.9,54.0,29.93,SSE,158,1.1,4.2,57,0.00,,,0.00,WUHU216HW,2013-10-26 23:47:00,
2013-10-26 16:52:00,69.6,53.7,29.93,SSW,203,0.0,4.2,57,0.00,,,0.00,WUHU216HW,2013-10-26 23:52:00,
2013-10-26 16:57:00,69.2,53.8,29.93,SSE,158,0.0,1.7,58,0.00,,,0.00,WUHU216HW,2013-10-26 23:57:00,
2013-10-26 17:02:00,69.4,54.0,29.93,SSW,203,0.0,1.7,58,0.00,,,0.00,WUHU216HW,2013-10-27 00:02:00,
2013-10-26 17:07:00,69.0,53.6,29.93,South,180,3.8,3.8,58,0.00,,,0.00,WUHU216HW,2013-10-27 00:07:00,
2013-10-26 17:12:00,68.5,53.1,29.93,SW,225,0.0,3.8,58,0.00,,,0.00,WUHU216HW,2013-10-27 00:12:00,
2013-10-26 17:17:00,68.1,53.2,29.93,SSE,158,4.6,4.6,59,0.00,,,0.00,WUHU216HW,2013-10-27 00:17:00,
2013-10-26 17:22:00,67.8,52.9,29.93,SE,135,1.3,4.6,59,0.00,,,0.00,WUHU216HW,2013-10-27 00:22:00,
2013-10-26 17:27:00,67.2,52.4,29.93,SSE,158,4.9,4.9,59,0.00,,,0.00,WUHU216HW,2013-10-27 00:27:00,
2013-10-26 17:32:00,66.5,52.4,29.92,South,180,4.2,4.9,60,0.00,,,0.00,WUHU216HW,2013-10-27 00:32:00,
2013-10-26 17:38:00,66.0,52.2,29.92,SSE,158,1.7,6.0,61,0.00,,,0.00,WUHU216HW,2013-10-27 00:38:00,
2013-10-26 17:43:00,65.6,51.4,29.92,SSW,203,0.0,6.0,60,0.00,,,0.00,WUHU216HW,2013-10-27 00:43:00,
2013-10-26 17:48:00,65.3,51.4,29.92,South,180,5.1,5.1,61,0.00,,,0.00,WUHU216HW,2013-10-27 00:48:00,
2013-10-26 17:53:00,65.1,51.7,29.92,South,180,0.0,5.1,62,0.00,,,0.00,WUHU216HW,2013-10-27 00:53:00,
2013-10-26 17:58:00,64.5,51.6,29.92,SSE,158,0.0,5.1,63,0.00,,,0.00,WUHU216HW,2013-10-27 00:58:00,
2013-10-26 18:03:00,64.2,51.7,29.92,SSE,158,2.6,2.6,64,0.00,,,0.00,WUHU216HW,2013-10-27 01:03:00,
2013-10-26 18:08:00,63.6,51.2,29.91,SE,135,3.5,3.5,64,0.00,,,0.00,WUHU216HW,2013-10-27 01:08:00,
2013-10-26 18:13:00,63.6,51.2,29.91,SSE,158,0.0,3.5,64,0.00,,,0.00,WUHU216HW,2013-10-27 01:13:00,
2013-10-26 18:18:00,63.6,51.6,29.91,SE,135,0.6,1.7,65,0.00,,,0.00,WUHU216HW,2013-10-27 01:18:00,
2013-10-26 18:23:00,63.8,51.3,29.92,SSE,158,2.6,2.6,64,0.00,,,0.00,WUHU216HW,2013-10-27 01:23:00,
2013-10-26 18:28:00,63.5,51.0,29.92,SSE,158,3.3,3.3,64,0.00,,,0.00,WUHU216HW,2013-10-27 01:28:00,
2013-10-26 18:33:00,62.4,50.4,29.91,South,180,0.8,3.3,65,0.00,,,0.00,WUHU216HW,2013-10-27 01:33:00,
2013-10-26 18:38:00,61.7,50.2,29.92,ESE,113,0.0,3.3,66,0.00,,,0.00,WUHU216HW,2013-10-27 01:38:00,
2013-10-26 18:44:00,60.9,50.0,29.92,SSE,158,5.5,5.5,67,0.00,,,0.00,WUHU216HW,2013-10-27 01:44:00,
2013-10-26 18:49:00,60.4,49.8,29.92,SSE,158,2.4,5.5,68,0.00,,,0.00,WUHU216HW,2013-10-27 01:49:00,
2013-10-26 18:54:00,59.9,49.3,29.92,South,180,0.0,5.5,68,0.00,,,0.00,WUHU216HW,2013-10-27 01:54:00,
2013-10-26 18:59:00,59.1,49.0,29.92,SSW,203,3.1,3.1,69,0.00,,,0.00,WUHU216HW,2013-10-27 01:59:00,
2013-10-26 19:04:00,58.8,49.1,29.93,South,180,3.5,6.9,70,0.00,,,0.00,WUHU216HW,2013-10-27 02:04:00,
2013-10-26 19:09:00,58.2,48.9,29.92,SE,135,0.0,6.9,71,0.00,,,0.00,WUHU216HW,2013-10-27 02:09:00,
2013-10-26 19:14:00,57.9,48.9,29.92,South,180,2.0,3.5,72,0.00,,,0.00,WUHU216HW,2013-10-27 02:14:00,
2013-10-26 19:19:00,57.5,48.9,29.92,South,180,2.0,2.0,73,0.00,,,0.00,WUHU216HW,2013-10-27 02:19:00,
2013-10-26 19:24:00,57.3,48.7,29.93,ESE,113,0.0,2.0,73,0.00,,,0.00,WUHU216HW,2013-10-27 02:24:00,
2013-10-26 19:29:00,57.3,48.7,29.93,SE,135,0.6,2.0,73,0.00,,,0.00,WUHU216HW,2013-10-27 02:29:00,
2013-10-26 19:34:00,57.3,48.7,29.93,SSE,158,0.0,1.3,73,0.00,,,0.00,WUHU216HW,2013-10-27 02:34:00,
2013-10-26 19:39:00,57.0,48.7,29.93,SSE,158,0.6,1.3,74,0.00,,,0.00,WUHU216HW,2013-10-27 02:39:00,
2013-10-26 19:45:00,57.0,48.7,29.93,SSE,158,0.0,0.6,74,0.00,,,0.00,WUHU216HW,2013-10-27 02:45:00,
2013-10-26 19:50:00,56.4,48.5,29.93,SSE,158,0.0,0.6,75,0.00,,,0.00,WUHU216HW,2013-10-27 02:50:00,
2013-10-26 19:55:00,56.1,48.2,29.93,SE,135,0.0,0.0,75,0.00,,,0.00,WUHU216HW,2013-10-27 02:55:00,
2013-10-26 20:00:00,56.1,48.2,29.93,SSE,158,0.0,2.2,75,0.00,,,0.00,WUHU216HW,2013-10-27 03:00:00,
2013-10-26 20:05:00,56.1,48.2,29.93,SSE,158,0.0,2.2,75,0.00,,,0.00,WUHU216HW,2013-10-27 03:05:00,
2013-10-26 20:10:00,55.9,48.4,29.93,SSE,158,0.0,1.3,76,0.00,,,0.00,WUHU216HW,2013-10-27 03:10:00,
2013-10-26 20:15:00,55.5,48.0,29.93,SSE,158,0.0,3.5,76,0.00,,,0.00,WUHU216HW,2013-10-27 03:15:00,
2013-10-26 20:20:00,55.4,48.2,29.92,SSW,203,0.0,3.5,77,0.00,,,0.00,WUHU216HW,2013-10-27 03:20:00,
2013-10-26 20:25:00,55.2,48.0,29.92,ESE,113,0.0,0.0,77,0.00,,,0.00,WUHU216HW,2013-10-27 03:25:00,
2013-10-26 20:30:00,55.2,48.0,29.93,SSE,158,0.6,0.6,77,0.00,,,0.00,WUHU216HW,2013-10-27 03:30:00,
2013-10-26 20:35:00,55.2,48.0,29.93,SE,135,1.3,1.3,77,0.00,,,0.00,WUHU216HW,2013-10-27 03:35:00,
2013-10-26 20:41:00,55.2,48.0,29.92,ESE,113,0.0,1.3,77,0.00,,,0.00,WUHU216HW,2013-10-27 03:41:00,
2013-10-26 20:46:00,55.2,48.0,29.93,SSE,158,1.5,2.6,77,0.00,,,0.00,WUHU216HW,2013-10-27 03:46:00,
2013-10-26 20:51:00,55.0,47.9,29.93,ESE,113,1.5,2.6,77,0.00,,,0.00,WUHU216HW,2013-10-27 03:51:00,
2013-10-26 20:56:00,55.0,48.2,29.93,SE,135,3.5,3.5,78,0.00,,,0.00,WUHU216HW,2013-10-27 03:56:00,
2013-10-26 21:01:00,55.0,48.2,29.93,SE,135,1.1,4.2,78,0.00,,,0.00,WUHU216HW,2013-10-27 04:01:00,
2013-10-26 21:02:00,55.0,48.2,29.93,SSE,158,1.5,4.2,78,0.00,,,0.00,WUHU216HW,2013-10-27 04:02:00,
2013-10-26 21:03:00,55.0,48.2,29.93,SSE,158,1.5,4.2,78,0.00,,,0.00,WUHU216HW,2013-10-27 04:03:00,
2013-10-26 21:08:00,54.8,48.4,29.93,SE,135,1.3,3.1,79,0.00,,,0.00,WUHU216HW,2013-10-27 04:08:00,
2013-10-26 21:13:00,54.6,48.2,29.93,South,180,0.0,1.5,79,0.00,,,0.00,WUHU216HW,2013-10-27 04:13:00,
2013-10-26 21:18:00,54.6,48.2,29.93,South,180,0.6,1.7,79,0.00,,,0.00,WUHU216HW,2013-10-27 04:18:00,
2013-10-26 21:23:00,54.3,47.9,29.93,SSE,158,2.0,3.8,79,0.00,,,0.00,WUHU216HW,2013-10-27 04:23:00,
2013-10-26 21:28:00,54.3,48.3,29.93,SE,135,0.8,3.8,80,0.00,,,0.00,WUHU216HW,2013-10-27 04:28:00,
2013-10-26 21:33:00,54.1,48.1,29.93,SSE,158,1.3,5.5,80,0.00,,,0.00,WUHU216HW,2013-10-27 04:33:00,
2013-10-26 21:38:00,53.9,47.9,29.94,SSE,158,2.6,5.5,80,0.00,,,0.00,WUHU216HW,2013-10-27 04:38:00,
2013-10-26 21:43:00,53.7,48.1,29.94,SSE,158,2.0,4.2,81,0.00,,,0.00,WUHU216HW,2013-10-27 04:43:00,
2013-10-26 21:49:00,53.4,47.7,29.94,SSE,158,3.1,4.2,81,0.00,,,0.00,WUHU216HW,2013-10-27 04:49:00,
2013-10-26 21:54:00,53.4,47.7,29.94,SE,135,2.9,6.2,81,0.00,,,0.00,WUHU216HW,2013-10-27 04:54:00,
2013-10-26 21:59:00,53.4,47.7,29.94,ESE,113,4.2,6.2,81,0.00,,,0.00,WUHU216HW,2013-10-27 04:59:00,
2013-10-26 22:04:00,53.4,48.0,29.94,ESE,113,0.6,4.2,82,0.00,,,0.00,WUHU216HW,2013-10-27 05:04:00,
2013-10-26 22:09:00,53.4,48.0,29.94,SSE,158,4.9,4.9,82,0.00,,,0.00,WUHU216HW,2013-10-27 05:09:00,
2013-10-26 22:14:00,53.4,48.0,29.94,SE,135,2.0,4.9,82,0.00,,,0.00,WUHU216HW,2013-10-27 05:14:00,
2013-10-26 22:19:00,53.2,47.9,29.94,SSW,203,1.7,4.0,82,0.00,,,0.00,WUHU216HW,2013-10-27 05:19:00,
2013-10-26 22:24:00,53.2,47.9,29.94,SSE,158,2.0,5.1,82,0.00,,,0.00,WUHU216HW,2013-10-27 05:24:00,
2013-10-26 22:29:00,53.0,48.0,29.94,SSE,158,3.8,5.1,83,0.00,,,0.00,WUHU216HW,2013-10-27 05:29:00,
2013-10-26 22:34:00,52.8,47.8,29.94,SSE,158,2.0,3.8,83,0.00,,,0.00,WUHU216HW,2013-10-27 05:34:00,
2013-10-26 22:40:00,52.7,47.6,29.94,SSE,158,2.0,7.1,83,0.00,,,0.00,WUHU216HW,2013-10-27 05:40:00,
2013-10-26 22:45:00,52.5,47.4,29.94,SSE,158,1.7,9.3,83,0.00,,,0.00,WUHU216HW,2013-10-27 05:45:00,
2013-10-26 22:50:00,52.5,47.4,29.94,SSW,203,1.5,9.3,83,0.00,,,0.00,WUHU216HW,2013-10-27 05:50:00,
2013-10-26 22:55:00,52.3,47.6,29.94,SE,135,2.9,4.6,84,0.00,,,0.00,WUHU216HW,2013-10-27 05:55:00,
2013-10-26 23:00:00,52.3,47.3,29.94,SW,225,3.8,4.6,83,0.00,,,0.00,WUHU216HW,2013-10-27 06:00:00,
2013-10-26 23:05:00,52.3,47.3,29.94,SSE,158,4.4,4.4,83,0.00,,,0.00,WUHU216HW,2013-10-27 06:05:00,
2013-10-26 23:10:00,52.3,47.3,29.94,SE,135,1.1,4.4,83,0.00,,,0.00,WUHU216HW,2013-10-27 06:10:00,
2013-10-26 23:15:00,52.3,47.3,29.93,SE,135,0.0,4.4,83,0.00,,,0.00,WUHU216HW,2013-10-27 06:15:00,
2013-10-26 23:20:00,52.3,47.3,29.93,SSE,158,1.7,2.6,83,0.00,,,0.00,WUHU216HW,2013-10-27 06:20:00,
2013-10-26 23:25:00,52.1,47.1,29.93,SSE,158,1.3,2.6,83,0.00,,,0.00,WUHU216HW,2013-10-27 06:25:00,
2013-10-26 23:30:00,52.1,47.1,29.93,SE,135,2.9,2.9,83,0.00,,,0.00,WUHU216HW,2013-10-27 06:30:00,
2013-10-26 23:35:00,52.3,47.3,29.93,SE,135,1.5,2.9,83,0.00,,,0.00,WUHU216HW,2013-10-27 06:35:00,
2013-10-26 23:40:00,52.3,47.3,29.93,South,180,0.0,3.8,83,0.00,,,0.00,WUHU216HW,2013-10-27 06:40:00,
2013-10-26 23:45:00,52.1,47.1,29.93,SW,225,0.6,3.8,83,0.00,,,0.00,WUHU216HW,2013-10-27 06:45:00,
2013-10-26 23:51:00,52.1,47.1,29.93,SSW,203,0.0,1.5,83,0.00,,,0.00,WUHU216HW,2013-10-27 06:51:00,
2013-10-26 23:56:00,52.1,47.1,29.93,SSE,158,2.9,2.9,83,0.00,,,0.00,WUHU216HW,2013-10-27 06:56:00,